EW7899 Weather Reports


Display with metric or nautical units.
time (UTC)temp
F
wind
direction
speed
MPH
gust
MPH
rain 1hr
in
rain 24hr
in
rain mn
in
humidity
%
barometer
mb
20260903130022 65 359 0.0 0.0 0.01 0.55 0.22 97 1008.7
20260903124510 64 359 0.0 0.0 0.01 0.55 0.22 96 1008.8
20260903123025 64 359 0.0 0.0 0.01 0.55 0.22 97 1008.8
20260903121510 64 226 0.0 0.0 0.01 0.55 0.22 97 1009.0
20260903120018 63 226 0.0 0.0 0.00 0.54 0.21 96 1008.9
20260903114506 63 359 0.0 0.0 0.00 0.54 0.21 96 1008.9
20260903113015 63 359 0.0 0.0 0.00 0.54 0.21 96 1008.9
20260903111502 63 359 0.0 0.0 0.00 0.54 0.21 96 1008.9
20260903110014 63 226 0.0 0.0 0.00 0.54 0.21 96 1008.8
20260903104526 63 359 0.0 0.0 0.00 0.54 0.21 96 1008.8
20260903103014 63 359 0.0 0.0 0.00 0.54 0.21 96 1008.7
20260903101522 63 359 0.0 0.0 0.00 0.54 0.21 96 1008.5
20260903100011 63 359 0.0 0.0 0.00 0.54 0.21 96 1008.4
20260903094519 63 359 0.0 0.0 0.00 0.54 0.21 96 1008.1
20260903093017 63 234 0.0 1.0 0.00 0.54 0.21 96 1008.2
20260903091517 63 316 0.0 1.0 0.00 0.54 0.21 96 1008.4
20260903090010 63 320 0.0 0.0 0.00 0.54 0.21 96 1008.2
20260903084522 62 320 0.0 0.0 0.00 0.54 0.21 96 1008.3
20260903083009 63 359 0.0 0.0 0.00 0.54 0.21 96 1008.4
20260903081535 63 320 0.0 0.0 0.00 0.54 0.21 96 1008.5
20260903080009 63 320 0.0 0.0 0.00 0.54 0.21 96 1008.6
20260903074518 63 359 0.0 0.0 0.00 0.54 0.21 96 1008.7
20260903073008 63 320 0.0 0.0 0.00 0.54 0.21 96 1008.8
20260903071518 63 320 0.0 0.0 0.00 0.54 0.21 96 1009.0
20260903070008 63 320 0.0 0.0 0.00 0.54 0.21 96 1008.9
20260903064513 62 320 0.0 0.0 0.03 0.54 0.21 96 1008.8
20260903063022 62 320 0.0 0.0 0.03 0.54 0.21 96 1008.8
20260903061512 62 359 0.0 0.0 0.07 0.54 0.21 96 1008.9
20260903060022 62 359 0.0 0.0 0.12 0.54 0.21 96 1009.3
20260903054511 62 320 0.0 2.0 0.10 0.51 0.18 96 1009.3
20260903053020 62 319 1.0 11.0 0.14 0.50 0.17 96 1009.5
20260903051509 62 314 0.0 0.0 0.12 0.46 0.13 96 1009.3
20260903050018 62 314 0.0 0.0 0.09 0.42 0.09 95 1009.4
20260903044510 62 316 0.0 0.0 0.16 0.41 0.08 95 1009.6
20260903043020 62 359 0.0 0.0 0.16 0.36 0.03 95 1009.7
20260903041510 62 314 0.0 0.0 0.21 0.34 0.01 95 1009.4
20260903040018 62 315 0.0 0.0 0.23 0.33 0.33 95 1009.8
20260903034506 63 359 0.0 0.0 0.17 0.24 0.24 95 1009.9
20260903033017 63 316 0.0 2.0 0.14 0.20 0.20 95 1010.1
20260903031518 63 314 0.0 0.0 0.07 0.12 0.12 95 1009.9
20260903030014 63 10 0.0 1.0 0.07 0.10 0.10 95 1009.5
20260903024523 63 101 0.0 0.0 0.06 0.07 0.07 95 1009.9
20260903023023 63 104 0.0 1.0 0.05 0.06 0.06 94 1009.9
20260903021515 64 93 0.0 0.0 0.05 0.05 0.05 94 1010.4
20260903020008 64 95 0.0 0.0 0.03 0.03 0.03 93 1010.5
20260903014515 64 93 0.0 0.0 0.01 0.01 0.01 92 1010.8
20260903013021 65 95 0.0 0.0 0.01 0.01 0.01 91 1010.8
20260903011508 66 359 0.0 0.0 0.00 0.00 0.00 89 1010.8
20260903010018 66 359 0.0 0.0 0.00 0.00 0.00 86 1010.8
20260903004529 66 359 0.0 0.0 0.00 0.00 0.00 86 1011.0
20260903003029 66 359 0.0 0.0 0.00 0.00 0.00 86 1010.6
20260903001507 66 359 0.0 0.0 0.00 0.00 0.00 84 1010.7
20260903000014 66 359 0.0 0.0 0.00 0.00 0.00 84 1010.3
20260902234517 67 359 0.0 0.0 0.00 0.00 0.00 85 1010.3
20260902233014 67 359 0.0 0.0 0.00 0.00 0.00 84 1010.4
20260902231523 67 61 0.0 0.0 0.00 0.00 0.00 84 1010.4
20260902230006 68 76 0.0 0.0 0.00 0.00 0.00 84 1010.8
20260902224510 68 48 0.0 2.0 0.00 0.00 0.00 84 1011.3
20260902223020 68 359 0.0 0.0 0.00 0.00 0.00 83 1011.6
20260902221521 69 32 0.0 0.0 0.00 0.00 0.00 83 1011.8
20260902220010 69 78 0.0 0.0 0.00 0.00 0.00 83 1011.8
20260902214517 69 359 0.0 2.0 0.00 0.00 0.00 81 1012.1
20260902213017 70 359 0.0 5.0 0.00 0.00 0.00 82 1011.8
20260902211507 71 359 1.0 7.0 0.00 0.00 0.00 80 1012.0
20260902210015 72 164 0.0 9.0 0.00 0.00 0.00 79 1012.3
20260902204516 72 134 0.0 5.0 0.00 0.00 0.00 79 1012.5
20260902203024 72 222 0.0 5.0 0.00 0.00 0.00 80 1012.4
20260902201517 72 102 1.0 8.0 0.00 0.00 0.00 79 1012.3
20260902200020 73 104 0.0 0.0 0.00 0.00 0.00 77 1012.5
20260902194526 74 131 0.0 2.0 0.00 0.00 0.00 79 1012.9
20260902193010 74 310 0.0 4.0 0.00 0.00 0.00 76 1012.8
20260902191520 74 143 0.0 5.0 0.00 0.00 0.00 77 1012.6
20260902190002 75 62 0.0 1.0 0.00 0.00 0.00 76 1013.0
20260902184512 75 95 0.0 2.0 0.00 0.00 0.00 76 1013.2
20260902183023 75 106 0.0 5.0 0.00 0.00 0.00 77 1013.2
20260902181510 75 92 2.0 8.0 0.00 0.00 0.00 76 1013.3
20260902180017 74 100 0.0 5.0 0.00 0.00 0.00 77 1013.6
20260902174524 74 92 0.0 6.0 0.00 0.00 0.00 78 1013.6
20260902173011 73 98 1.0 4.0 0.00 0.00 0.00 79 1013.6
20260902171519 73 111 0.0 7.0 0.00 0.00 0.00 79 1013.6
20260902170008 73 116 0.0 8.0 0.00 0.00 0.00 79 1013.6
20260902164519 73 93 0.0 6.0 0.00 0.00 0.00 81 1013.7
20260902163012 72 63 0.0 6.0 0.00 0.00 0.00 80 1014.2
20260902161505 72 60 1.0 7.0 0.00 0.00 0.00 82 1014.2
20260902160023 72 109 0.0 2.0 0.00 0.00 0.00 82 1014.3
20260902154523 72 121 0.0 0.0 0.00 0.00 0.00 82 1014.7
20260902153011 71 122 0.0 0.0 0.00 0.00 0.00 82 1014.7
20260902151520 71 93 0.0 0.0 0.00 0.00 0.00 85 1014.9
20260902150011 70 91 0.0 0.0 0.00 0.00 0.00 86 1014.8
20260902144518 69 104 0.0 2.0 0.00 0.00 0.00 87 1015.0
20260902143008 68 339 0.0 0.0 0.00 0.00 0.00 89 1015.1
20260902141520 67 23 0.0 0.0 0.00 0.00 0.00 89 1015.2
20260902140007 66 23 0.0 0.0 0.00 0.00 0.00 91 1015.3
20260902134516 66 68 0.0 0.0 0.00 0.00 0.00 93 1015.0
20260902133007 65 68 0.0 0.0 0.00 0.00 0.00 93 1015.2
20260902131515 64 71 0.0 0.0 0.00 0.00 0.00 94 1015.1